Index of /20260427/WXO-DD/model_rdps/10km/06/054
Name Last modified Size Description
Parent Directory -
20260427T06Z_MSC_RDPS_AbsoluteVorticity_IsbL-0250_RLatLon0.09_PT054H.grib2 2026-04-27 08:57 632K
20260427T06Z_MSC_RDPS_AbsoluteVorticity_IsbL-0500_RLatLon0.09_PT054H.grib2 2026-04-27 08:57 569K
20260427T06Z_MSC_RDPS_AbsoluteVorticity_IsbL-0700_RLatLon0.09_PT054H.grib2 2026-04-27 08:57 616K
20260427T06Z_MSC_RDPS_AbsoluteVorticity_IsbL-0850_RLatLon0.09_PT054H.grib2 2026-04-27 08:57 778K
20260427T06Z_MSC_RDPS_AirTemp_AGL-120m_RLatLon0.09_PT054H.grib2 2026-04-27 08:57 378K
20260427T06Z_MSC_RDPS_AirTemp_AGL-2m_RLatLon0.09_PT054H.grib2 2026-04-27 08:57 622K
20260427T06Z_MSC_RDPS_AirTemp_AGL-40m_RLatLon0.09_PT054H.grib2 2026-04-27 08:57 395K
20260427T06Z_MSC_RDPS_AirTemp_AGL-80m_RLatLon0.09_PT054H.grib2 2026-04-27 08:57 387K
20260427T06Z_MSC_RDPS_AirTemp_IsbL-0001_RLatLon0.09_PT054H.grib2 2026-04-27 08:57 263K
20260427T06Z_MSC_RDPS_AirTemp_IsbL-0005_RLatLon0.09_PT054H.grib2 2026-04-27 08:57 292K
20260427T06Z_MSC_RDPS_AirTemp_IsbL-0010_RLatLon0.09_PT054H.grib2 2026-04-27 08:57 304K
20260427T06Z_MSC_RDPS_AirTemp_IsbL-0020_RLatLon0.09_PT054H.grib2 2026-04-27 08:57 318K
20260427T06Z_MSC_RDPS_AirTemp_IsbL-0030_RLatLon0.09_PT054H.grib2 2026-04-27 08:57 338K
20260427T06Z_MSC_RDPS_AirTemp_IsbL-0050_RLatLon0.09_PT054H.grib2 2026-04-27 08:57 318K
20260427T06Z_MSC_RDPS_AirTemp_IsbL-0100_RLatLon0.09_PT054H.grib2 2026-04-27 08:57 433K
20260427T06Z_MSC_RDPS_AirTemp_IsbL-0150_RLatLon0.09_PT054H.grib2 2026-04-27 08:57 429K
20260427T06Z_MSC_RDPS_AirTemp_IsbL-0175_RLatLon0.09_PT054H.grib2 2026-04-27 08:57 415K
20260427T06Z_MSC_RDPS_AirTemp_IsbL-0200_RLatLon0.09_PT054H.grib2 2026-04-27 08:57 420K
20260427T06Z_MSC_RDPS_AirTemp_IsbL-0225_RLatLon0.09_PT054H.grib2 2026-04-27 08:57 420K
20260427T06Z_MSC_RDPS_AirTemp_IsbL-0250_RLatLon0.09_PT054H.grib2 2026-04-27 08:57 430K
20260427T06Z_MSC_RDPS_AirTemp_IsbL-0275_RLatLon0.09_PT054H.grib2 2026-04-27 08:57 411K
20260427T06Z_MSC_RDPS_AirTemp_IsbL-0300_RLatLon0.09_PT054H.grib2 2026-04-27 08:57 442K
20260427T06Z_MSC_RDPS_AirTemp_IsbL-0350_RLatLon0.09_PT054H.grib2 2026-04-27 08:57 430K
20260427T06Z_MSC_RDPS_AirTemp_IsbL-0400_RLatLon0.09_PT054H.grib2 2026-04-27 08:57 429K
20260427T06Z_MSC_RDPS_AirTemp_IsbL-0450_RLatLon0.09_PT054H.grib2 2026-04-27 08:57 398K
20260427T06Z_MSC_RDPS_AirTemp_IsbL-0500_RLatLon0.09_PT054H.grib2 2026-04-27 08:57 406K
20260427T06Z_MSC_RDPS_AirTemp_IsbL-0550_RLatLon0.09_PT054H.grib2 2026-04-27 08:57 422K
20260427T06Z_MSC_RDPS_AirTemp_IsbL-0600_RLatLon0.09_PT054H.grib2 2026-04-27 08:57 440K
20260427T06Z_MSC_RDPS_AirTemp_IsbL-0650_RLatLon0.09_PT054H.grib2 2026-04-27 08:57 454K
20260427T06Z_MSC_RDPS_AirTemp_IsbL-0700_RLatLon0.09_PT054H.grib2 2026-04-27 08:57 479K
20260427T06Z_MSC_RDPS_AirTemp_IsbL-0750_RLatLon0.09_PT054H.grib2 2026-04-27 08:57 405K
20260427T06Z_MSC_RDPS_AirTemp_IsbL-0800_RLatLon0.09_PT054H.grib2 2026-04-27 08:57 454K
20260427T06Z_MSC_RDPS_AirTemp_IsbL-0850_RLatLon0.09_PT054H.grib2 2026-04-27 08:57 506K
20260427T06Z_MSC_RDPS_AirTemp_IsbL-0875_RLatLon0.09_PT054H.grib2 2026-04-27 08:57 524K
20260427T06Z_MSC_RDPS_AirTemp_IsbL-0900_RLatLon0.09_PT054H.grib2 2026-04-27 08:57 532K
20260427T06Z_MSC_RDPS_AirTemp_IsbL-0925_RLatLon0.09_PT054H.grib2 2026-04-27 08:57 526K
20260427T06Z_MSC_RDPS_AirTemp_IsbL-0950_RLatLon0.09_PT054H.grib2 2026-04-27 08:57 528K
20260427T06Z_MSC_RDPS_AirTemp_IsbL-0970_RLatLon0.09_PT054H.grib2 2026-04-27 08:57 520K
20260427T06Z_MSC_RDPS_AirTemp_IsbL-0985_RLatLon0.09_PT054H.grib2 2026-04-27 08:57 506K
20260427T06Z_MSC_RDPS_AirTemp_IsbL-1000_RLatLon0.09_PT054H.grib2 2026-04-27 08:57 489K
20260427T06Z_MSC_RDPS_AirTemp_IsbL-1015_RLatLon0.09_PT054H.grib2 2026-04-27 08:57 488K
20260427T06Z_MSC_RDPS_Albedo_Sfc_RLatLon0.09_PT054H.grib2 2026-04-27 08:57 155K
20260427T06Z_MSC_RDPS_CAPE_Sfc_RLatLon0.09_PT054H.grib2 2026-04-27 08:57 1.7M
20260427T06Z_MSC_RDPS_CIN_Sfc_RLatLon0.09_PT054H.grib2 2026-04-27 08:57 1.1M
20260427T06Z_MSC_RDPS_CloudWater_EAtm_RLatLon0.09_PT054H.grib2 2026-04-27 08:57 218K
20260427T06Z_MSC_RDPS_ConvectivePrecip-Accum_Sfc_RLatLon0.09_PT054H.grib2 2026-04-27 08:57 1.1M
20260427T06Z_MSC_RDPS_DewPointDepression_AGL-2m_RLatLon0.09_PT054H.grib2 2026-04-27 08:57 395K
20260427T06Z_MSC_RDPS_DewPointDepression_IsbL-0001_RLatLon0.09_PT054H.grib2 2026-04-27 08:57 193
20260427T06Z_MSC_RDPS_DewPointDepression_IsbL-0005_RLatLon0.09_PT054H.grib2 2026-04-27 08:57 193
20260427T06Z_MSC_RDPS_DewPointDepression_IsbL-0010_RLatLon0.09_PT054H.grib2 2026-04-27 08:57 193
20260427T06Z_MSC_RDPS_DewPointDepression_IsbL-0020_RLatLon0.09_PT054H.grib2 2026-04-27 08:57 193
20260427T06Z_MSC_RDPS_DewPointDepression_IsbL-0030_RLatLon0.09_PT054H.grib2 2026-04-27 08:57 193
20260427T06Z_MSC_RDPS_DewPointDepression_IsbL-0050_RLatLon0.09_PT054H.grib2 2026-04-27 08:57 86K
20260427T06Z_MSC_RDPS_DewPointDepression_IsbL-0100_RLatLon0.09_PT054H.grib2 2026-04-27 08:57 131K
20260427T06Z_MSC_RDPS_DewPointDepression_IsbL-0150_RLatLon0.09_PT054H.grib2 2026-04-27 08:57 148K
20260427T06Z_MSC_RDPS_DewPointDepression_IsbL-0175_RLatLon0.09_PT054H.grib2 2026-04-27 08:57 175K
20260427T06Z_MSC_RDPS_DewPointDepression_IsbL-0200_RLatLon0.09_PT054H.grib2 2026-04-27 08:57 215K
20260427T06Z_MSC_RDPS_DewPointDepression_IsbL-0225_RLatLon0.09_PT054H.grib2 2026-04-27 08:57 262K
20260427T06Z_MSC_RDPS_DewPointDepression_IsbL-0250_RLatLon0.09_PT054H.grib2 2026-04-27 08:57 301K
20260427T06Z_MSC_RDPS_DewPointDepression_IsbL-0275_RLatLon0.09_PT054H.grib2 2026-04-27 08:57 309K
20260427T06Z_MSC_RDPS_DewPointDepression_IsbL-0300_RLatLon0.09_PT054H.grib2 2026-04-27 08:57 327K
20260427T06Z_MSC_RDPS_DewPointDepression_IsbL-0350_RLatLon0.09_PT054H.grib2 2026-04-27 08:57 329K
20260427T06Z_MSC_RDPS_DewPointDepression_IsbL-0400_RLatLon0.09_PT054H.grib2 2026-04-27 08:57 337K
20260427T06Z_MSC_RDPS_DewPointDepression_IsbL-0450_RLatLon0.09_PT054H.grib2 2026-04-27 08:57 341K
20260427T06Z_MSC_RDPS_DewPointDepression_IsbL-0500_RLatLon0.09_PT054H.grib2 2026-04-27 08:57 347K
20260427T06Z_MSC_RDPS_DewPointDepression_IsbL-0550_RLatLon0.09_PT054H.grib2 2026-04-27 08:57 359K
20260427T06Z_MSC_RDPS_DewPointDepression_IsbL-0600_RLatLon0.09_PT054H.grib2 2026-04-27 08:57 369K
20260427T06Z_MSC_RDPS_DewPointDepression_IsbL-0650_RLatLon0.09_PT054H.grib2 2026-04-27 08:57 373K
20260427T06Z_MSC_RDPS_DewPointDepression_IsbL-0700_RLatLon0.09_PT054H.grib2 2026-04-27 08:57 384K
20260427T06Z_MSC_RDPS_DewPointDepression_IsbL-0750_RLatLon0.09_PT054H.grib2 2026-04-27 08:57 405K
20260427T06Z_MSC_RDPS_DewPointDepression_IsbL-0800_RLatLon0.09_PT054H.grib2 2026-04-27 08:57 439K
20260427T06Z_MSC_RDPS_DewPointDepression_IsbL-0850_RLatLon0.09_PT054H.grib2 2026-04-27 08:57 468K
20260427T06Z_MSC_RDPS_DewPointDepression_IsbL-0875_RLatLon0.09_PT054H.grib2 2026-04-27 08:57 469K
20260427T06Z_MSC_RDPS_DewPointDepression_IsbL-0900_RLatLon0.09_PT054H.grib2 2026-04-27 08:57 460K
20260427T06Z_MSC_RDPS_DewPointDepression_IsbL-0925_RLatLon0.09_PT054H.grib2 2026-04-27 08:57 448K
20260427T06Z_MSC_RDPS_DewPointDepression_IsbL-0950_RLatLon0.09_PT054H.grib2 2026-04-27 08:57 443K
20260427T06Z_MSC_RDPS_DewPointDepression_IsbL-0970_RLatLon0.09_PT054H.grib2 2026-04-27 08:57 434K
20260427T06Z_MSC_RDPS_DewPointDepression_IsbL-0985_RLatLon0.09_PT054H.grib2 2026-04-27 08:57 428K
20260427T06Z_MSC_RDPS_DewPointDepression_IsbL-1000_RLatLon0.09_PT054H.grib2 2026-04-27 08:57 425K
20260427T06Z_MSC_RDPS_DewPointDepression_IsbL-1015_RLatLon0.09_PT054H.grib2 2026-04-27 08:57 419K
20260427T06Z_MSC_RDPS_DewPoint_AGL-2m_RLatLon0.09_PT054H.grib2 2026-04-27 08:57 398K
20260427T06Z_MSC_RDPS_DownwardLongwaveRadiationFlux-Accum_Sfc_RLatLon0.09_PT054H.grib2 2026-04-27 08:57 386K
20260427T06Z_MSC_RDPS_DownwardShortwaveRadiationFlux-Accum_NTAtm_RLatLon0.09_PT054H.grib2 2026-04-27 08:57 143K
20260427T06Z_MSC_RDPS_DownwardShortwaveRadiationFlux-Accum_Sfc_RLatLon0.09_PT054H.grib2 2026-04-27 08:57 569K
20260427T06Z_MSC_RDPS_FreezingRain-Accum12h_Sfc_RLatLon0.09_PT054H.grib2 2026-04-27 08:57 99K
20260427T06Z_MSC_RDPS_FreezingRain-Accum1h_Sfc_RLatLon0.09_PT054H.grib2 2026-04-27 08:57 40K
20260427T06Z_MSC_RDPS_FreezingRain-Accum24h_Sfc_RLatLon0.09_PT054H.grib2 2026-04-27 08:57 118K
20260427T06Z_MSC_RDPS_FreezingRain-Accum3h_Sfc_RLatLon0.09_PT054H.grib2 2026-04-27 08:57 49K
20260427T06Z_MSC_RDPS_FreezingRain-Accum6h_Sfc_RLatLon0.09_PT054H.grib2 2026-04-27 08:57 79K
20260427T06Z_MSC_RDPS_FreezingRain-Accum_Sfc_RLatLon0.09_PT054H.grib2 2026-04-27 08:57 189K
20260427T06Z_MSC_RDPS_GeopotentialHeight_IsbL-0001_RLatLon0.09_PT054H.grib2 2026-04-27 08:57 312K
20260427T06Z_MSC_RDPS_GeopotentialHeight_IsbL-0005_RLatLon0.09_PT054H.grib2 2026-04-27 08:57 338K
20260427T06Z_MSC_RDPS_GeopotentialHeight_IsbL-0010_RLatLon0.09_PT054H.grib2 2026-04-27 08:57 306K
20260427T06Z_MSC_RDPS_GeopotentialHeight_IsbL-0020_RLatLon0.09_PT054H.grib2 2026-04-27 08:57 305K
20260427T06Z_MSC_RDPS_GeopotentialHeight_IsbL-0030_RLatLon0.09_PT054H.grib2 2026-04-27 08:57 306K
20260427T06Z_MSC_RDPS_GeopotentialHeight_IsbL-0050_RLatLon0.09_PT054H.grib2 2026-04-27 08:57 308K
20260427T06Z_MSC_RDPS_GeopotentialHeight_IsbL-0100_RLatLon0.09_PT054H.grib2 2026-04-27 08:57 288K
20260427T06Z_MSC_RDPS_GeopotentialHeight_IsbL-0150_RLatLon0.09_PT054H.grib2 2026-04-27 08:57 231K
20260427T06Z_MSC_RDPS_GeopotentialHeight_IsbL-0175_RLatLon0.09_PT054H.grib2 2026-04-27 08:57 264K
20260427T06Z_MSC_RDPS_GeopotentialHeight_IsbL-0200_RLatLon0.09_PT054H.grib2 2026-04-27 08:57 266K
20260427T06Z_MSC_RDPS_GeopotentialHeight_IsbL-0225_RLatLon0.09_PT054H.grib2 2026-04-27 08:57 267K
20260427T06Z_MSC_RDPS_GeopotentialHeight_IsbL-0250_RLatLon0.09_PT054H.grib2 2026-04-27 08:57 267K
20260427T06Z_MSC_RDPS_GeopotentialHeight_IsbL-0275_RLatLon0.09_PT054H.grib2 2026-04-27 08:57 266K
20260427T06Z_MSC_RDPS_GeopotentialHeight_IsbL-0300_RLatLon0.09_PT054H.grib2 2026-04-27 08:57 266K
20260427T06Z_MSC_RDPS_GeopotentialHeight_IsbL-0350_RLatLon0.09_PT054H.grib2 2026-04-27 08:57 232K
20260427T06Z_MSC_RDPS_GeopotentialHeight_IsbL-0400_RLatLon0.09_PT054H.grib2 2026-04-27 08:57 228K
20260427T06Z_MSC_RDPS_GeopotentialHeight_IsbL-0450_RLatLon0.09_PT054H.grib2 2026-04-27 08:57 297K
20260427T06Z_MSC_RDPS_GeopotentialHeight_IsbL-0500_RLatLon0.09_PT054H.grib2 2026-04-27 08:57 292K
20260427T06Z_MSC_RDPS_GeopotentialHeight_IsbL-0550_RLatLon0.09_PT054H.grib2 2026-04-27 08:57 288K
20260427T06Z_MSC_RDPS_GeopotentialHeight_IsbL-0600_RLatLon0.09_PT054H.grib2 2026-04-27 08:57 283K
20260427T06Z_MSC_RDPS_GeopotentialHeight_IsbL-0650_RLatLon0.09_PT054H.grib2 2026-04-27 08:57 253K
20260427T06Z_MSC_RDPS_GeopotentialHeight_IsbL-0700_RLatLon0.09_PT054H.grib2 2026-04-27 08:57 333K
20260427T06Z_MSC_RDPS_GeopotentialHeight_IsbL-0750_RLatLon0.09_PT054H.grib2 2026-04-27 08:57 335K
20260427T06Z_MSC_RDPS_GeopotentialHeight_IsbL-0800_RLatLon0.09_PT054H.grib2 2026-04-27 08:57 344K
20260427T06Z_MSC_RDPS_GeopotentialHeight_IsbL-0850_RLatLon0.09_PT054H.grib2 2026-04-27 08:57 355K
20260427T06Z_MSC_RDPS_GeopotentialHeight_IsbL-0875_RLatLon0.09_PT054H.grib2 2026-04-27 08:57 359K
20260427T06Z_MSC_RDPS_GeopotentialHeight_IsbL-0900_RLatLon0.09_PT054H.grib2 2026-04-27 08:57 362K
20260427T06Z_MSC_RDPS_GeopotentialHeight_IsbL-0925_RLatLon0.09_PT054H.grib2 2026-04-27 08:57 365K
20260427T06Z_MSC_RDPS_GeopotentialHeight_IsbL-0950_RLatLon0.09_PT054H.grib2 2026-04-27 08:57 369K
20260427T06Z_MSC_RDPS_GeopotentialHeight_IsbL-0970_RLatLon0.09_PT054H.grib2 2026-04-27 08:57 376K
20260427T06Z_MSC_RDPS_GeopotentialHeight_IsbL-0985_RLatLon0.09_PT054H.grib2 2026-04-27 08:57 383K
20260427T06Z_MSC_RDPS_GeopotentialHeight_IsbL-1000_RLatLon0.09_PT054H.grib2 2026-04-27 08:57 395K
20260427T06Z_MSC_RDPS_GeopotentialHeight_IsbL-1015_RLatLon0.09_PT054H.grib2 2026-04-27 08:57 410K
20260427T06Z_MSC_RDPS_Humidex_Sfc_RLatLon0.09_PT054H.grib2 2026-04-27 08:57 2.4M
20260427T06Z_MSC_RDPS_IcePellets-Accum12h_Sfc_RLatLon0.09_PT054H.grib2 2026-04-27 08:57 13K
20260427T06Z_MSC_RDPS_IcePellets-Accum1h_Sfc_RLatLon0.09_PT054H.grib2 2026-04-27 08:57 6.3K
20260427T06Z_MSC_RDPS_IcePellets-Accum24h_Sfc_RLatLon0.09_PT054H.grib2 2026-04-27 08:57 23K
20260427T06Z_MSC_RDPS_IcePellets-Accum3h_Sfc_RLatLon0.09_PT054H.grib2 2026-04-27 08:57 8.7K
20260427T06Z_MSC_RDPS_IcePellets-Accum6h_Sfc_RLatLon0.09_PT054H.grib2 2026-04-27 08:57 10K
20260427T06Z_MSC_RDPS_IcePellets-Accum_Sfc_RLatLon0.09_PT054H.grib2 2026-04-27 08:57 28K
20260427T06Z_MSC_RDPS_KIndex_Sfc_RLatLon0.09_PT054H.grib2 2026-04-27 08:57 2.5M
20260427T06Z_MSC_RDPS_LatentHeatNetFlux_Sfc_RLatLon0.09_PT054H.grib2 2026-04-27 08:57 420K
20260427T06Z_MSC_RDPS_LiftedIndex-MU-VT_IsbL-0500_RLatLon0.09_PT054H.grib2 2026-04-27 08:57 2.4M
20260427T06Z_MSC_RDPS_NetLongwaveRadiationFlux-Accum_Sfc_RLatLon0.09_PT054H.grib2 2026-04-27 08:57 562K
20260427T06Z_MSC_RDPS_NetShortwaveRadiationFlux-Accum_Sfc_RLatLon0.09_PT054H.grib2 2026-04-27 08:57 571K
20260427T06Z_MSC_RDPS_PlanetaryBoundaryLayerHeight_Sfc_RLatLon0.09_PT054H.grib2 2026-04-27 08:57 1.1M
20260427T06Z_MSC_RDPS_Precip-Accum12h_Sfc_RLatLon0.09_PT054H.grib2 2026-04-27 08:57 1.7M
20260427T06Z_MSC_RDPS_Precip-Accum1h_Sfc_RLatLon0.09_PT054H.grib2 2026-04-27 08:57 1.2M
20260427T06Z_MSC_RDPS_Precip-Accum24h_Sfc_RLatLon0.09_PT054H.grib2 2026-04-27 08:57 1.8M
20260427T06Z_MSC_RDPS_Precip-Accum3h_Sfc_RLatLon0.09_PT054H.grib2 2026-04-27 08:57 1.3M
20260427T06Z_MSC_RDPS_Precip-Accum6h_Sfc_RLatLon0.09_PT054H.grib2 2026-04-27 08:57 1.5M
20260427T06Z_MSC_RDPS_Precip-Accum_Sfc_RLatLon0.09_PT054H.grib2 2026-04-27 08:57 2.1M
20260427T06Z_MSC_RDPS_PrecipRate_Sfc_RLatLon0.09_PT054H.grib2 2026-04-27 08:57 161K
20260427T06Z_MSC_RDPS_PrecipType-Instant_Sfc_RLatLon0.09_PT054H.grib2 2026-04-27 08:57 559K
20260427T06Z_MSC_RDPS_Pressure-Trend3h_Sfc_RLatLon0.09_PT054H.grib2 2026-04-27 08:57 1.2M
20260427T06Z_MSC_RDPS_Pressure_MSL_RLatLon0.09_PT054H.grib2 2026-04-27 08:57 294K
20260427T06Z_MSC_RDPS_Pressure_PVU-1.5_RLatLon0.09_PT054H.grib2 2026-04-27 08:57 2.3M
20260427T06Z_MSC_RDPS_Pressure_PVU-1_RLatLon0.09_PT054H.grib2 2026-04-27 08:57 2.4M
20260427T06Z_MSC_RDPS_Pressure_PVU-2_RLatLon0.09_PT054H.grib2 2026-04-27 08:57 2.4M
20260427T06Z_MSC_RDPS_Pressure_Sfc_RLatLon0.09_PT054H.grib2 2026-04-27 08:57 501K
20260427T06Z_MSC_RDPS_RadiativeTemp_Sfc_RLatLon0.09_PT054H.grib2 2026-04-27 08:57 303K
20260427T06Z_MSC_RDPS_Rain-Accum12h_Sfc_RLatLon0.09_PT054H.grib2 2026-04-27 08:57 1.1M
20260427T06Z_MSC_RDPS_Rain-Accum1h_Sfc_RLatLon0.09_PT054H.grib2 2026-04-27 08:57 588K
20260427T06Z_MSC_RDPS_Rain-Accum24h_Sfc_RLatLon0.09_PT054H.grib2 2026-04-27 08:57 1.3M
20260427T06Z_MSC_RDPS_Rain-Accum3h_Sfc_RLatLon0.09_PT054H.grib2 2026-04-27 08:57 663K
20260427T06Z_MSC_RDPS_Rain-Accum6h_Sfc_RLatLon0.09_PT054H.grib2 2026-04-27 08:57 922K
20260427T06Z_MSC_RDPS_Rain-Accum_Sfc_RLatLon0.09_PT054H.grib2 2026-04-27 08:57 1.6M
20260427T06Z_MSC_RDPS_RelativeHumidity_AGL-2m_RLatLon0.09_PT054H.grib2 2026-04-27 08:57 1.0M
20260427T06Z_MSC_RDPS_RelativeHumidity_IsbL-0010_RLatLon0.09_PT054H.grib2 2026-04-27 08:57 622K
20260427T06Z_MSC_RDPS_RelativeHumidity_IsbL-0020_RLatLon0.09_PT054H.grib2 2026-04-27 08:57 648K
20260427T06Z_MSC_RDPS_RelativeHumidity_IsbL-0030_RLatLon0.09_PT054H.grib2 2026-04-27 08:57 538K
20260427T06Z_MSC_RDPS_RelativeHumidity_IsbL-0050_RLatLon0.09_PT054H.grib2 2026-04-27 08:57 328K
20260427T06Z_MSC_RDPS_RelativeHumidity_IsbL-0100_RLatLon0.09_PT054H.grib2 2026-04-27 08:57 286K
20260427T06Z_MSC_RDPS_RelativeHumidity_IsbL-0150_RLatLon0.09_PT054H.grib2 2026-04-27 08:57 416K
20260427T06Z_MSC_RDPS_RelativeHumidity_IsbL-0175_RLatLon0.09_PT054H.grib2 2026-04-27 08:57 484K
20260427T06Z_MSC_RDPS_RelativeHumidity_IsbL-0200_RLatLon0.09_PT054H.grib2 2026-04-27 08:57 555K
20260427T06Z_MSC_RDPS_RelativeHumidity_IsbL-0225_RLatLon0.09_PT054H.grib2 2026-04-27 08:57 622K
20260427T06Z_MSC_RDPS_RelativeHumidity_IsbL-0250_RLatLon0.09_PT054H.grib2 2026-04-27 08:57 692K
20260427T06Z_MSC_RDPS_RelativeHumidity_IsbL-0275_RLatLon0.09_PT054H.grib2 2026-04-27 08:57 722K
20260427T06Z_MSC_RDPS_RelativeHumidity_IsbL-0300_RLatLon0.09_PT054H.grib2 2026-04-27 08:57 764K
20260427T06Z_MSC_RDPS_RelativeHumidity_IsbL-0350_RLatLon0.09_PT054H.grib2 2026-04-27 08:57 781K
20260427T06Z_MSC_RDPS_RelativeHumidity_IsbL-0400_RLatLon0.09_PT054H.grib2 2026-04-27 08:57 792K
20260427T06Z_MSC_RDPS_RelativeHumidity_IsbL-0450_RLatLon0.09_PT054H.grib2 2026-04-27 08:57 790K
20260427T06Z_MSC_RDPS_RelativeHumidity_IsbL-0500_RLatLon0.09_PT054H.grib2 2026-04-27 08:57 794K
20260427T06Z_MSC_RDPS_RelativeHumidity_IsbL-0550_RLatLon0.09_PT054H.grib2 2026-04-27 08:57 810K
20260427T06Z_MSC_RDPS_RelativeHumidity_IsbL-0600_RLatLon0.09_PT054H.grib2 2026-04-27 08:57 828K
20260427T06Z_MSC_RDPS_RelativeHumidity_IsbL-0650_RLatLon0.09_PT054H.grib2 2026-04-27 08:57 838K
20260427T06Z_MSC_RDPS_RelativeHumidity_IsbL-0700_RLatLon0.09_PT054H.grib2 2026-04-27 08:57 863K
20260427T06Z_MSC_RDPS_RelativeHumidity_IsbL-0750_RLatLon0.09_PT054H.grib2 2026-04-27 08:57 908K
20260427T06Z_MSC_RDPS_RelativeHumidity_IsbL-0800_RLatLon0.09_PT054H.grib2 2026-04-27 08:57 1.0M
20260427T06Z_MSC_RDPS_RelativeHumidity_IsbL-0850_RLatLon0.09_PT054H.grib2 2026-04-27 08:57 1.0M
20260427T06Z_MSC_RDPS_RelativeHumidity_IsbL-0875_RLatLon0.09_PT054H.grib2 2026-04-27 08:57 1.1M
20260427T06Z_MSC_RDPS_RelativeHumidity_IsbL-0900_RLatLon0.09_PT054H.grib2 2026-04-27 08:57 1.1M
20260427T06Z_MSC_RDPS_RelativeHumidity_IsbL-0925_RLatLon0.09_PT054H.grib2 2026-04-27 08:57 1.1M
20260427T06Z_MSC_RDPS_RelativeHumidity_IsbL-0950_RLatLon0.09_PT054H.grib2 2026-04-27 08:57 1.1M
20260427T06Z_MSC_RDPS_RelativeHumidity_IsbL-0970_RLatLon0.09_PT054H.grib2 2026-04-27 08:57 1.1M
20260427T06Z_MSC_RDPS_RelativeHumidity_IsbL-0985_RLatLon0.09_PT054H.grib2 2026-04-27 08:57 1.0M
20260427T06Z_MSC_RDPS_RelativeHumidity_IsbL-1000_RLatLon0.09_PT054H.grib2 2026-04-27 08:57 1.0M
20260427T06Z_MSC_RDPS_RelativeHumidity_IsbL-1015_RLatLon0.09_PT054H.grib2 2026-04-27 08:57 1.0M
20260427T06Z_MSC_RDPS_Runoff-Accum_Sfc_RLatLon0.09_PT054H.grib2 2026-04-27 08:57 50K
20260427T06Z_MSC_RDPS_SWEATIndex_Sfc_RLatLon0.09_PT054H.grib2 2026-04-27 08:57 2.4M
20260427T06Z_MSC_RDPS_SeeingIndex_EAtm_RLatLon0.09_PT054H.grib2 2026-04-27 08:57 1.0M
20260427T06Z_MSC_RDPS_SensibleHeatNetFlux_Sfc_RLatLon0.09_PT054H.grib2 2026-04-27 08:57 308K
20260427T06Z_MSC_RDPS_ShowalterIndex_IsbL-0500_RLatLon0.09_PT054H.grib2 2026-04-27 08:57 2.6M
20260427T06Z_MSC_RDPS_SkyTransparencyIndex_EAtm_RLatLon0.09_PT054H.grib2 2026-04-27 08:57 695K
20260427T06Z_MSC_RDPS_Snow-Accum12h_Sfc_RLatLon0.09_PT054H.grib2 2026-04-27 08:57 630K
20260427T06Z_MSC_RDPS_Snow-Accum1h_Sfc_RLatLon0.09_PT054H.grib2 2026-04-27 08:57 537K
20260427T06Z_MSC_RDPS_Snow-Accum24h_Sfc_RLatLon0.09_PT054H.grib2 2026-04-27 08:57 664K
20260427T06Z_MSC_RDPS_Snow-Accum3h_Sfc_RLatLon0.09_PT054H.grib2 2026-04-27 08:57 578K
20260427T06Z_MSC_RDPS_Snow-Accum6h_Sfc_RLatLon0.09_PT054H.grib2 2026-04-27 08:57 609K
20260427T06Z_MSC_RDPS_Snow-Accum_Sfc_RLatLon0.09_PT054H.grib2 2026-04-27 08:57 807K
20260427T06Z_MSC_RDPS_SnowDensity_Sfc_RLatLon0.09_PT054H.grib2 2026-04-27 08:57 187K
20260427T06Z_MSC_RDPS_SnowDepth_Sfc_RLatLon0.09_PT054H.grib2 2026-04-27 08:57 705K
20260427T06Z_MSC_RDPS_SoilTemp_DBS-0to10cm_RLatLon0.09_PT054H.grib2 2026-04-27 08:57 233K
20260427T06Z_MSC_RDPS_SoilTemp_Sfc_RLatLon0.09_PT054H.grib2 2026-04-27 08:57 274K
20260427T06Z_MSC_RDPS_SoilVolumetricIceContent_Sfc_RLatLon0.09_PT054H.grib2 2026-04-27 08:57 168K
20260427T06Z_MSC_RDPS_SoilVolumetricWaterContent_DBS-0to10cm_RLatLon0.09_PT054H.grib2 2026-04-27 08:57 265K
20260427T06Z_MSC_RDPS_SoilVolumetricWaterContent_DBS-0to1cm_RLatLon0.09_PT054H.grib2 2026-04-27 08:57 337K
20260427T06Z_MSC_RDPS_SpecificHumidity_AGL-120m_RLatLon0.09_PT054H.grib2 2026-04-27 08:57 487K
20260427T06Z_MSC_RDPS_SpecificHumidity_AGL-2m_RLatLon0.09_PT054H.grib2 2026-04-27 08:57 653K
20260427T06Z_MSC_RDPS_SpecificHumidity_AGL-40m_RLatLon0.09_PT054H.grib2 2026-04-27 08:57 493K
20260427T06Z_MSC_RDPS_SpecificHumidity_AGL-80m_RLatLon0.09_PT054H.grib2 2026-04-27 08:57 489K
20260427T06Z_MSC_RDPS_SpecificHumidity_IsbL-0001_RLatLon0.09_PT054H.grib2 2026-04-27 08:57 340K
20260427T06Z_MSC_RDPS_SpecificHumidity_IsbL-0005_RLatLon0.09_PT054H.grib2 2026-04-27 08:57 356K
20260427T06Z_MSC_RDPS_SpecificHumidity_IsbL-0010_RLatLon0.09_PT054H.grib2 2026-04-27 08:57 397K
20260427T06Z_MSC_RDPS_SpecificHumidity_IsbL-0020_RLatLon0.09_PT054H.grib2 2026-04-27 08:57 385K
20260427T06Z_MSC_RDPS_SpecificHumidity_IsbL-0030_RLatLon0.09_PT054H.grib2 2026-04-27 08:57 444K
20260427T06Z_MSC_RDPS_SpecificHumidity_IsbL-0050_RLatLon0.09_PT054H.grib2 2026-04-27 08:57 455K
20260427T06Z_MSC_RDPS_SpecificHumidity_IsbL-0100_RLatLon0.09_PT054H.grib2 2026-04-27 08:57 428K
20260427T06Z_MSC_RDPS_SpecificHumidity_IsbL-0150_RLatLon0.09_PT054H.grib2 2026-04-27 08:57 481K
20260427T06Z_MSC_RDPS_SpecificHumidity_IsbL-0175_RLatLon0.09_PT054H.grib2 2026-04-27 08:57 438K
20260427T06Z_MSC_RDPS_SpecificHumidity_IsbL-0200_RLatLon0.09_PT054H.grib2 2026-04-27 08:57 468K
20260427T06Z_MSC_RDPS_SpecificHumidity_IsbL-0225_RLatLon0.09_PT054H.grib2 2026-04-27 08:57 470K
20260427T06Z_MSC_RDPS_SpecificHumidity_IsbL-0250_RLatLon0.09_PT054H.grib2 2026-04-27 08:57 514K
20260427T06Z_MSC_RDPS_SpecificHumidity_IsbL-0275_RLatLon0.09_PT054H.grib2 2026-04-27 08:57 474K
20260427T06Z_MSC_RDPS_SpecificHumidity_IsbL-0300_RLatLon0.09_PT054H.grib2 2026-04-27 08:57 445K
20260427T06Z_MSC_RDPS_SpecificHumidity_IsbL-0350_RLatLon0.09_PT054H.grib2 2026-04-27 08:57 561K
20260427T06Z_MSC_RDPS_SpecificHumidity_IsbL-0400_RLatLon0.09_PT054H.grib2 2026-04-27 08:57 516K
20260427T06Z_MSC_RDPS_SpecificHumidity_IsbL-0450_RLatLon0.09_PT054H.grib2 2026-04-27 08:57 564K
20260427T06Z_MSC_RDPS_SpecificHumidity_IsbL-0500_RLatLon0.09_PT054H.grib2 2026-04-27 08:57 499K
20260427T06Z_MSC_RDPS_SpecificHumidity_IsbL-0550_RLatLon0.09_PT054H.grib2 2026-04-27 08:57 572K
20260427T06Z_MSC_RDPS_SpecificHumidity_IsbL-0600_RLatLon0.09_PT054H.grib2 2026-04-27 08:57 625K
20260427T06Z_MSC_RDPS_SpecificHumidity_IsbL-0650_RLatLon0.09_PT054H.grib2 2026-04-27 08:57 542K
20260427T06Z_MSC_RDPS_SpecificHumidity_IsbL-0700_RLatLon0.09_PT054H.grib2 2026-04-27 08:57 584K
20260427T06Z_MSC_RDPS_SpecificHumidity_IsbL-0750_RLatLon0.09_PT054H.grib2 2026-04-27 08:57 638K
20260427T06Z_MSC_RDPS_SpecificHumidity_IsbL-0800_RLatLon0.09_PT054H.grib2 2026-04-27 08:57 717K
20260427T06Z_MSC_RDPS_SpecificHumidity_IsbL-0850_RLatLon0.09_PT054H.grib2 2026-04-27 08:57 794K
20260427T06Z_MSC_RDPS_SpecificHumidity_IsbL-0875_RLatLon0.09_PT054H.grib2 2026-04-27 08:57 820K
20260427T06Z_MSC_RDPS_SpecificHumidity_IsbL-0900_RLatLon0.09_PT054H.grib2 2026-04-27 08:57 832K
20260427T06Z_MSC_RDPS_SpecificHumidity_IsbL-0925_RLatLon0.09_PT054H.grib2 2026-04-27 08:57 833K
20260427T06Z_MSC_RDPS_SpecificHumidity_IsbL-0950_RLatLon0.09_PT054H.grib2 2026-04-27 08:57 835K
20260427T06Z_MSC_RDPS_SpecificHumidity_IsbL-0970_RLatLon0.09_PT054H.grib2 2026-04-27 08:57 824K
20260427T06Z_MSC_RDPS_SpecificHumidity_IsbL-0985_RLatLon0.09_PT054H.grib2 2026-04-27 08:57 816K
20260427T06Z_MSC_RDPS_SpecificHumidity_IsbL-1000_RLatLon0.09_PT054H.grib2 2026-04-27 08:57 671K
20260427T06Z_MSC_RDPS_SpecificHumidity_IsbL-1015_RLatLon0.09_PT054H.grib2 2026-04-27 08:57 663K
20260427T06Z_MSC_RDPS_SpecificHumidity_Sfc_RLatLon0.09_PT054H.grib2 2026-04-27 08:57 291K
20260427T06Z_MSC_RDPS_StormRelativeHelicity_EtaL-10000_RLatLon0.09_PT054H.grib2 2026-04-27 08:57 1.1M
20260427T06Z_MSC_RDPS_StormSeverityIndex_EtaL-10000_RLatLon0.09_PT054H.grib2 2026-04-27 08:57 1.1M
20260427T06Z_MSC_RDPS_Thickness_IsbL-0850to0700_RLatLon0.09_PT054H.grib2 2026-04-27 08:57 177K
20260427T06Z_MSC_RDPS_Thickness_IsbL-1000to0500_RLatLon0.09_PT054H.grib2 2026-04-27 08:57 199K
20260427T06Z_MSC_RDPS_Thickness_IsbL-1000to0850_RLatLon0.09_PT054H.grib2 2026-04-27 08:57 262K
20260427T06Z_MSC_RDPS_TotalCloudCover_Sfc_RLatLon0.09_PT054H.grib2 2026-04-27 08:57 665K
20260427T06Z_MSC_RDPS_TotalTotalsIndex_Sfc_RLatLon0.09_PT054H.grib2 2026-04-27 08:57 2.4M
20260427T06Z_MSC_RDPS_UVIndex-ClearSky_Sfc_RLatLon0.09_PT054H.grib2 2026-04-27 08:57 141K
20260427T06Z_MSC_RDPS_UVIndex_Sfc_RLatLon0.09_PT054H.grib2 2026-04-27 08:57 331K
20260427T06Z_MSC_RDPS_UpwardLongwaveRadiationFlux_NTAtm_RLatLon0.09_PT054H.grib2 2026-04-27 08:57 491K
20260427T06Z_MSC_RDPS_UpwardShortwaveRadiationFlux_NTAtm_RLatLon0.09_PT054H.grib2 2026-04-27 08:57 298K
20260427T06Z_MSC_RDPS_VerticalVelocity_IsbL-0250_RLatLon0.09_PT054H.grib2 2026-04-27 08:57 459K
20260427T06Z_MSC_RDPS_VerticalVelocity_IsbL-0500_RLatLon0.09_PT054H.grib2 2026-04-27 08:57 543K
20260427T06Z_MSC_RDPS_VerticalVelocity_IsbL-0700_RLatLon0.09_PT054H.grib2 2026-04-27 08:57 586K
20260427T06Z_MSC_RDPS_VerticalVelocity_IsbL-0850_RLatLon0.09_PT054H.grib2 2026-04-27 08:57 686K
20260427T06Z_MSC_RDPS_VerticalWindShear_EtaL-6500_RLatLon0.09_PT054H.grib2 2026-04-27 08:57 1.2M
20260427T06Z_MSC_RDPS_WindChill_Sfc_RLatLon0.09_PT054H.grib2 2026-04-27 08:57 1.2M
20260427T06Z_MSC_RDPS_WindDir_AGL-10m_RLatLon0.09_PT054H.grib2 2026-04-27 08:57 1.0M
20260427T06Z_MSC_RDPS_WindDir_AGL-120m_RLatLon0.09_PT054H.grib2 2026-04-27 08:57 614K
20260427T06Z_MSC_RDPS_WindDir_AGL-40m_RLatLon0.09_PT054H.grib2 2026-04-27 08:57 643K
20260427T06Z_MSC_RDPS_WindDir_AGL-80m_RLatLon0.09_PT054H.grib2 2026-04-27 08:57 624K
20260427T06Z_MSC_RDPS_WindDir_IsbL-0001_RLatLon0.09_PT054H.grib2 2026-04-27 08:57 305K
20260427T06Z_MSC_RDPS_WindDir_IsbL-0005_RLatLon0.09_PT054H.grib2 2026-04-27 08:57 366K
20260427T06Z_MSC_RDPS_WindDir_IsbL-0010_RLatLon0.09_PT054H.grib2 2026-04-27 08:57 377K
20260427T06Z_MSC_RDPS_WindDir_IsbL-0020_RLatLon0.09_PT054H.grib2 2026-04-27 08:57 396K
20260427T06Z_MSC_RDPS_WindDir_IsbL-0030_RLatLon0.09_PT054H.grib2 2026-04-27 08:57 415K
20260427T06Z_MSC_RDPS_WindDir_IsbL-0050_RLatLon0.09_PT054H.grib2 2026-04-27 08:57 432K
20260427T06Z_MSC_RDPS_WindDir_IsbL-0100_RLatLon0.09_PT054H.grib2 2026-04-27 08:57 425K
20260427T06Z_MSC_RDPS_WindDir_IsbL-0150_RLatLon0.09_PT054H.grib2 2026-04-27 08:57 411K
20260427T06Z_MSC_RDPS_WindDir_IsbL-0175_RLatLon0.09_PT054H.grib2 2026-04-27 08:57 434K
20260427T06Z_MSC_RDPS_WindDir_IsbL-0200_RLatLon0.09_PT054H.grib2 2026-04-27 08:57 446K
20260427T06Z_MSC_RDPS_WindDir_IsbL-0225_RLatLon0.09_PT054H.grib2 2026-04-27 08:57 449K
20260427T06Z_MSC_RDPS_WindDir_IsbL-0250_RLatLon0.09_PT054H.grib2 2026-04-27 08:57 455K
20260427T06Z_MSC_RDPS_WindDir_IsbL-0275_RLatLon0.09_PT054H.grib2 2026-04-27 08:57 479K
20260427T06Z_MSC_RDPS_WindDir_IsbL-0300_RLatLon0.09_PT054H.grib2 2026-04-27 08:57 474K
20260427T06Z_MSC_RDPS_WindDir_IsbL-0350_RLatLon0.09_PT054H.grib2 2026-04-27 08:57 496K
20260427T06Z_MSC_RDPS_WindDir_IsbL-0400_RLatLon0.09_PT054H.grib2 2026-04-27 08:57 519K
20260427T06Z_MSC_RDPS_WindDir_IsbL-0450_RLatLon0.09_PT054H.grib2 2026-04-27 08:57 530K
20260427T06Z_MSC_RDPS_WindDir_IsbL-0500_RLatLon0.09_PT054H.grib2 2026-04-27 08:57 543K
20260427T06Z_MSC_RDPS_WindDir_IsbL-0550_RLatLon0.09_PT054H.grib2 2026-04-27 08:57 558K
20260427T06Z_MSC_RDPS_WindDir_IsbL-0600_RLatLon0.09_PT054H.grib2 2026-04-27 08:57 587K
20260427T06Z_MSC_RDPS_WindDir_IsbL-0650_RLatLon0.09_PT054H.grib2 2026-04-27 08:57 621K
20260427T06Z_MSC_RDPS_WindDir_IsbL-0700_RLatLon0.09_PT054H.grib2 2026-04-27 08:57 661K
20260427T06Z_MSC_RDPS_WindDir_IsbL-0750_RLatLon0.09_PT054H.grib2 2026-04-27 08:57 712K
20260427T06Z_MSC_RDPS_WindDir_IsbL-0800_RLatLon0.09_PT054H.grib2 2026-04-27 08:57 780K
20260427T06Z_MSC_RDPS_WindDir_IsbL-0850_RLatLon0.09_PT054H.grib2 2026-04-27 08:57 855K
20260427T06Z_MSC_RDPS_WindDir_IsbL-0875_RLatLon0.09_PT054H.grib2 2026-04-27 08:57 886K
20260427T06Z_MSC_RDPS_WindDir_IsbL-0900_RLatLon0.09_PT054H.grib2 2026-04-27 08:57 904K
20260427T06Z_MSC_RDPS_WindDir_IsbL-0925_RLatLon0.09_PT054H.grib2 2026-04-27 08:57 916K
20260427T06Z_MSC_RDPS_WindDir_IsbL-0950_RLatLon0.09_PT054H.grib2 2026-04-27 08:57 918K
20260427T06Z_MSC_RDPS_WindDir_IsbL-0970_RLatLon0.09_PT054H.grib2 2026-04-27 08:57 927K
20260427T06Z_MSC_RDPS_WindDir_IsbL-0985_RLatLon0.09_PT054H.grib2 2026-04-27 08:57 935K
20260427T06Z_MSC_RDPS_WindDir_IsbL-1000_RLatLon0.09_PT054H.grib2 2026-04-27 08:57 950K
20260427T06Z_MSC_RDPS_WindDir_IsbL-1015_RLatLon0.09_PT054H.grib2 2026-04-27 08:57 969K
20260427T06Z_MSC_RDPS_WindGust-Max_AGL-10m_RLatLon0.09_PT054H.grib2 2026-04-27 08:57 1.0M
20260427T06Z_MSC_RDPS_WindGust-Min_AGL-10m_RLatLon0.09_PT054H.grib2 2026-04-27 08:57 1.0M
20260427T06Z_MSC_RDPS_WindGust_AGL-10m_RLatLon0.09_PT054H.grib2 2026-04-27 08:57 1.0M
20260427T06Z_MSC_RDPS_WindSpeed_AGL-10m_RLatLon0.09_PT054H.grib2 2026-04-27 08:57 844K
20260427T06Z_MSC_RDPS_WindSpeed_AGL-120m_RLatLon0.09_PT054H.grib2 2026-04-27 08:57 555K
20260427T06Z_MSC_RDPS_WindSpeed_AGL-40m_RLatLon0.09_PT054H.grib2 2026-04-27 08:57 546K
20260427T06Z_MSC_RDPS_WindSpeed_AGL-80m_RLatLon0.09_PT054H.grib2 2026-04-27 08:57 556K
20260427T06Z_MSC_RDPS_WindSpeed_IsbL-0001_RLatLon0.09_PT054H.grib2 2026-04-27 08:57 255K
20260427T06Z_MSC_RDPS_WindSpeed_IsbL-0005_RLatLon0.09_PT054H.grib2 2026-04-27 08:57 297K
20260427T06Z_MSC_RDPS_WindSpeed_IsbL-0010_RLatLon0.09_PT054H.grib2 2026-04-27 08:57 308K
20260427T06Z_MSC_RDPS_WindSpeed_IsbL-0020_RLatLon0.09_PT054H.grib2 2026-04-27 08:57 324K
20260427T06Z_MSC_RDPS_WindSpeed_IsbL-0030_RLatLon0.09_PT054H.grib2 2026-04-27 08:57 322K
20260427T06Z_MSC_RDPS_WindSpeed_IsbL-0050_RLatLon0.09_PT054H.grib2 2026-04-27 08:57 461K
20260427T06Z_MSC_RDPS_WindSpeed_IsbL-0100_RLatLon0.09_PT054H.grib2 2026-04-27 08:57 490K
20260427T06Z_MSC_RDPS_WindSpeed_IsbL-0150_RLatLon0.09_PT054H.grib2 2026-04-27 08:57 386K
20260427T06Z_MSC_RDPS_WindSpeed_IsbL-0175_RLatLon0.09_PT054H.grib2 2026-04-27 08:57 411K
20260427T06Z_MSC_RDPS_WindSpeed_IsbL-0200_RLatLon0.09_PT054H.grib2 2026-04-27 08:57 448K
20260427T06Z_MSC_RDPS_WindSpeed_IsbL-0225_RLatLon0.09_PT054H.grib2 2026-04-27 08:57 454K
20260427T06Z_MSC_RDPS_WindSpeed_IsbL-0250_RLatLon0.09_PT054H.grib2 2026-04-27 08:57 460K
20260427T06Z_MSC_RDPS_WindSpeed_IsbL-0275_RLatLon0.09_PT054H.grib2 2026-04-27 08:57 479K
20260427T06Z_MSC_RDPS_WindSpeed_IsbL-0300_RLatLon0.09_PT054H.grib2 2026-04-27 08:57 476K
20260427T06Z_MSC_RDPS_WindSpeed_IsbL-0350_RLatLon0.09_PT054H.grib2 2026-04-27 08:57 487K
20260427T06Z_MSC_RDPS_WindSpeed_IsbL-0400_RLatLon0.09_PT054H.grib2 2026-04-27 08:57 470K
20260427T06Z_MSC_RDPS_WindSpeed_IsbL-0450_RLatLon0.09_PT054H.grib2 2026-04-27 08:57 468K
20260427T06Z_MSC_RDPS_WindSpeed_IsbL-0500_RLatLon0.09_PT054H.grib2 2026-04-27 08:57 466K
20260427T06Z_MSC_RDPS_WindSpeed_IsbL-0550_RLatLon0.09_PT054H.grib2 2026-04-27 08:57 464K
20260427T06Z_MSC_RDPS_WindSpeed_IsbL-0600_RLatLon0.09_PT054H.grib2 2026-04-27 08:57 589K
20260427T06Z_MSC_RDPS_WindSpeed_IsbL-0650_RLatLon0.09_PT054H.grib2 2026-04-27 08:57 606K
20260427T06Z_MSC_RDPS_WindSpeed_IsbL-0700_RLatLon0.09_PT054H.grib2 2026-04-27 08:57 629K
20260427T06Z_MSC_RDPS_WindSpeed_IsbL-0750_RLatLon0.09_PT054H.grib2 2026-04-27 08:57 659K
20260427T06Z_MSC_RDPS_WindSpeed_IsbL-0800_RLatLon0.09_PT054H.grib2 2026-04-27 08:57 707K
20260427T06Z_MSC_RDPS_WindSpeed_IsbL-0850_RLatLon0.09_PT054H.grib2 2026-04-27 08:57 812K
20260427T06Z_MSC_RDPS_WindSpeed_IsbL-0875_RLatLon0.09_PT054H.grib2 2026-04-27 08:57 834K
20260427T06Z_MSC_RDPS_WindSpeed_IsbL-0900_RLatLon0.09_PT054H.grib2 2026-04-27 08:57 849K
20260427T06Z_MSC_RDPS_WindSpeed_IsbL-0925_RLatLon0.09_PT054H.grib2 2026-04-27 08:57 861K
20260427T06Z_MSC_RDPS_WindSpeed_IsbL-0950_RLatLon0.09_PT054H.grib2 2026-04-27 08:57 863K
20260427T06Z_MSC_RDPS_WindSpeed_IsbL-0970_RLatLon0.09_PT054H.grib2 2026-04-27 08:57 864K
20260427T06Z_MSC_RDPS_WindSpeed_IsbL-0985_RLatLon0.09_PT054H.grib2 2026-04-27 08:57 856K
20260427T06Z_MSC_RDPS_WindSpeed_IsbL-1000_RLatLon0.09_PT054H.grib2 2026-04-27 08:57 852K
20260427T06Z_MSC_RDPS_WindSpeed_IsbL-1015_RLatLon0.09_PT054H.grib2 2026-04-27 08:57 843K
20260427T06Z_MSC_RDPS_WindU_AGL-10m_RLatLon0.09_PT054H.grib2 2026-04-27 08:57 433K
20260427T06Z_MSC_RDPS_WindU_AGL-120m_RLatLon0.09_PT054H.grib2 2026-04-27 08:57 421K
20260427T06Z_MSC_RDPS_WindU_AGL-40m_RLatLon0.09_PT054H.grib2 2026-04-27 08:57 541K
20260427T06Z_MSC_RDPS_WindU_AGL-80m_RLatLon0.09_PT054H.grib2 2026-04-27 08:57 423K
20260427T06Z_MSC_RDPS_WindU_IsbL-0001_RLatLon0.09_PT054H.grib2 2026-04-27 08:57 294K
20260427T06Z_MSC_RDPS_WindU_IsbL-0005_RLatLon0.09_PT054H.grib2 2026-04-27 08:57 288K
20260427T06Z_MSC_RDPS_WindU_IsbL-0010_RLatLon0.09_PT054H.grib2 2026-04-27 08:57 299K
20260427T06Z_MSC_RDPS_WindU_IsbL-0020_RLatLon0.09_PT054H.grib2 2026-04-27 08:57 315K
20260427T06Z_MSC_RDPS_WindU_IsbL-0030_RLatLon0.09_PT054H.grib2 2026-04-27 08:57 314K
20260427T06Z_MSC_RDPS_WindU_IsbL-0050_RLatLon0.09_PT054H.grib2 2026-04-27 08:57 349K
20260427T06Z_MSC_RDPS_WindU_IsbL-0100_RLatLon0.09_PT054H.grib2 2026-04-27 08:57 346K
20260427T06Z_MSC_RDPS_WindU_IsbL-0150_RLatLon0.09_PT054H.grib2 2026-04-27 08:57 403K
20260427T06Z_MSC_RDPS_WindU_IsbL-0175_RLatLon0.09_PT054H.grib2 2026-04-27 08:57 424K
20260427T06Z_MSC_RDPS_WindU_IsbL-0200_RLatLon0.09_PT054H.grib2 2026-04-27 08:57 439K
20260427T06Z_MSC_RDPS_WindU_IsbL-0225_RLatLon0.09_PT054H.grib2 2026-04-27 08:57 346K
20260427T06Z_MSC_RDPS_WindU_IsbL-0250_RLatLon0.09_PT054H.grib2 2026-04-27 08:57 349K
20260427T06Z_MSC_RDPS_WindU_IsbL-0275_RLatLon0.09_PT054H.grib2 2026-04-27 08:57 365K
20260427T06Z_MSC_RDPS_WindU_IsbL-0300_RLatLon0.09_PT054H.grib2 2026-04-27 08:57 361K
20260427T06Z_MSC_RDPS_WindU_IsbL-0350_RLatLon0.09_PT054H.grib2 2026-04-27 08:57 472K
20260427T06Z_MSC_RDPS_WindU_IsbL-0400_RLatLon0.09_PT054H.grib2 2026-04-27 08:57 473K
20260427T06Z_MSC_RDPS_WindU_IsbL-0450_RLatLon0.09_PT054H.grib2 2026-04-27 08:57 470K
20260427T06Z_MSC_RDPS_WindU_IsbL-0500_RLatLon0.09_PT054H.grib2 2026-04-27 08:57 469K
20260427T06Z_MSC_RDPS_WindU_IsbL-0550_RLatLon0.09_PT054H.grib2 2026-04-27 08:57 468K
20260427T06Z_MSC_RDPS_WindU_IsbL-0600_RLatLon0.09_PT054H.grib2 2026-04-27 08:57 457K
20260427T06Z_MSC_RDPS_WindU_IsbL-0650_RLatLon0.09_PT054H.grib2 2026-04-27 08:57 475K
20260427T06Z_MSC_RDPS_WindU_IsbL-0700_RLatLon0.09_PT054H.grib2 2026-04-27 08:57 497K
20260427T06Z_MSC_RDPS_WindU_IsbL-0750_RLatLon0.09_PT054H.grib2 2026-04-27 08:57 524K
20260427T06Z_MSC_RDPS_WindU_IsbL-0800_RLatLon0.09_PT054H.grib2 2026-04-27 08:57 569K
20260427T06Z_MSC_RDPS_WindU_IsbL-0850_RLatLon0.09_PT054H.grib2 2026-04-27 08:57 621K
20260427T06Z_MSC_RDPS_WindU_IsbL-0875_RLatLon0.09_PT054H.grib2 2026-04-27 08:57 641K
20260427T06Z_MSC_RDPS_WindU_IsbL-0900_RLatLon0.09_PT054H.grib2 2026-04-27 08:57 652K
20260427T06Z_MSC_RDPS_WindU_IsbL-0925_RLatLon0.09_PT054H.grib2 2026-04-27 08:57 659K
20260427T06Z_MSC_RDPS_WindU_IsbL-0950_RLatLon0.09_PT054H.grib2 2026-04-27 08:57 656K
20260427T06Z_MSC_RDPS_WindU_IsbL-0970_RLatLon0.09_PT054H.grib2 2026-04-27 08:57 654K
20260427T06Z_MSC_RDPS_WindU_IsbL-0985_RLatLon0.09_PT054H.grib2 2026-04-27 08:57 651K
20260427T06Z_MSC_RDPS_WindU_IsbL-1000_RLatLon0.09_PT054H.grib2 2026-04-27 08:57 787K
20260427T06Z_MSC_RDPS_WindU_IsbL-1015_RLatLon0.09_PT054H.grib2 2026-04-27 08:57 782K
20260427T06Z_MSC_RDPS_WindV_AGL-10m_RLatLon0.09_PT054H.grib2 2026-04-27 08:57 434K
20260427T06Z_MSC_RDPS_WindV_AGL-120m_RLatLon0.09_PT054H.grib2 2026-04-27 08:57 538K
20260427T06Z_MSC_RDPS_WindV_AGL-40m_RLatLon0.09_PT054H.grib2 2026-04-27 08:57 540K
20260427T06Z_MSC_RDPS_WindV_AGL-80m_RLatLon0.09_PT054H.grib2 2026-04-27 08:57 539K
20260427T06Z_MSC_RDPS_WindV_IsbL-0001_RLatLon0.09_PT054H.grib2 2026-04-27 08:57 293K
20260427T06Z_MSC_RDPS_WindV_IsbL-0005_RLatLon0.09_PT054H.grib2 2026-04-27 08:57 288K
20260427T06Z_MSC_RDPS_WindV_IsbL-0010_RLatLon0.09_PT054H.grib2 2026-04-27 08:57 300K
20260427T06Z_MSC_RDPS_WindV_IsbL-0020_RLatLon0.09_PT054H.grib2 2026-04-27 08:57 356K
20260427T06Z_MSC_RDPS_WindV_IsbL-0030_RLatLon0.09_PT054H.grib2 2026-04-27 08:57 317K
20260427T06Z_MSC_RDPS_WindV_IsbL-0050_RLatLon0.09_PT054H.grib2 2026-04-27 08:57 349K
20260427T06Z_MSC_RDPS_WindV_IsbL-0100_RLatLon0.09_PT054H.grib2 2026-04-27 08:57 340K
20260427T06Z_MSC_RDPS_WindV_IsbL-0150_RLatLon0.09_PT054H.grib2 2026-04-27 08:57 400K
20260427T06Z_MSC_RDPS_WindV_IsbL-0175_RLatLon0.09_PT054H.grib2 2026-04-27 08:57 328K
20260427T06Z_MSC_RDPS_WindV_IsbL-0200_RLatLon0.09_PT054H.grib2 2026-04-27 08:57 341K
20260427T06Z_MSC_RDPS_WindV_IsbL-0225_RLatLon0.09_PT054H.grib2 2026-04-27 08:57 370K
20260427T06Z_MSC_RDPS_WindV_IsbL-0250_RLatLon0.09_PT054H.grib2 2026-04-27 08:57 372K
20260427T06Z_MSC_RDPS_WindV_IsbL-0275_RLatLon0.09_PT054H.grib2 2026-04-27 08:57 386K
20260427T06Z_MSC_RDPS_WindV_IsbL-0300_RLatLon0.09_PT054H.grib2 2026-04-27 08:57 383K
20260427T06Z_MSC_RDPS_WindV_IsbL-0350_RLatLon0.09_PT054H.grib2 2026-04-27 08:57 368K
20260427T06Z_MSC_RDPS_WindV_IsbL-0400_RLatLon0.09_PT054H.grib2 2026-04-27 08:57 369K
20260427T06Z_MSC_RDPS_WindV_IsbL-0450_RLatLon0.09_PT054H.grib2 2026-04-27 08:57 368K
20260427T06Z_MSC_RDPS_WindV_IsbL-0500_RLatLon0.09_PT054H.grib2 2026-04-27 08:57 469K
20260427T06Z_MSC_RDPS_WindV_IsbL-0550_RLatLon0.09_PT054H.grib2 2026-04-27 08:57 468K
20260427T06Z_MSC_RDPS_WindV_IsbL-0600_RLatLon0.09_PT054H.grib2 2026-04-27 08:57 474K
20260427T06Z_MSC_RDPS_WindV_IsbL-0650_RLatLon0.09_PT054H.grib2 2026-04-27 08:57 488K
20260427T06Z_MSC_RDPS_WindV_IsbL-0700_RLatLon0.09_PT054H.grib2 2026-04-27 08:57 507K
20260427T06Z_MSC_RDPS_WindV_IsbL-0750_RLatLon0.09_PT054H.grib2 2026-04-27 08:57 533K
20260427T06Z_MSC_RDPS_WindV_IsbL-0800_RLatLon0.09_PT054H.grib2 2026-04-27 08:57 575K
20260427T06Z_MSC_RDPS_WindV_IsbL-0850_RLatLon0.09_PT054H.grib2 2026-04-27 08:57 618K
20260427T06Z_MSC_RDPS_WindV_IsbL-0875_RLatLon0.09_PT054H.grib2 2026-04-27 08:57 637K
20260427T06Z_MSC_RDPS_WindV_IsbL-0900_RLatLon0.09_PT054H.grib2 2026-04-27 08:57 650K
20260427T06Z_MSC_RDPS_WindV_IsbL-0925_RLatLon0.09_PT054H.grib2 2026-04-27 08:57 658K
20260427T06Z_MSC_RDPS_WindV_IsbL-0950_RLatLon0.09_PT054H.grib2 2026-04-27 08:57 657K
20260427T06Z_MSC_RDPS_WindV_IsbL-0970_RLatLon0.09_PT054H.grib2 2026-04-27 08:57 799K
20260427T06Z_MSC_RDPS_WindV_IsbL-0985_RLatLon0.09_PT054H.grib2 2026-04-27 08:57 793K
20260427T06Z_MSC_RDPS_WindV_IsbL-1000_RLatLon0.09_PT054H.grib2 2026-04-27 08:57 835K
20260427T06Z_MSC_RDPS_WindV_IsbL-1015_RLatLon0.09_PT054H.grib2 2026-04-27 08:57 828K